Orbital Elements at Epoch 2459200.5 (2020-Dec-17.0) TDB
Reference: JPL 34 (heliocentric ecliptic J2000)
Element | Value | Uncertainty (1-sigma) | Units |
e | .1555284983708997 | 3.6179e-08 | |
a | 2.775215277618048 | 1.0424e-08 | au |
q | 2.343590212834133 | 1.0071e-07 | au |
i | 9.029700424263197 | 4.1931e-06 | deg |
node | 182.0605203828849 | 2.0341e-05 | deg |
peri | 230.1539565395198 | 2.3687e-05 | deg |
M | 354.6138402665638 | 1.0786e-05 | deg |
tp | 2459225.765050543069 (2021-Jan-11.26505054) | 5.0578e-05 | TDB |
period | 1688.664771496159 4.62 | 9.5138e-06 2.605e-08 | d yr |
n | .2131861847754659 | 1.2011e-09 | deg/d |
Q | 3.206840342401962 | 1.2045e-08 | au |
|
| | Orbit Determination Parameters
Additional Information
|